Home   Weather   Fullerton   Past weeks

Flag for USA Past Weather in Fullerton, California, USA — Yesterday and Last 2 Weeks

Now
48 °F

Passing clouds.


Feels Like: 48 °F
Forecast: 45 / 61 °F
Wind: No wind

Location: Fullerton Municipal Airport

Current Time: Jan 18, 2017 at 6:09:10 am

Latest Report: Jan 18, 2017 at 5:09 am


Visibility: 9 mi

Pressure: 30.15 "Hg

Humidity: 83%

Dew Point: 43 °F

Location of FullertonLocation

Past Weather in Fullerton — Graph

°F

Fullerton Temperature Yesterday

Maximum temperature yesterday: 69 °F (at 1:53 pm)
Minimum temperature yesterday: 44 °F (at 4:53 am)
Average temperature yesterday: 55 °F

High & Low Weather Summary for the Past Weeks

 TemperatureHumidityPressure
High77 °F (Jan 8, 1:53 pm)100% (Jan 5, 1:34 am)30.20 "Hg (Jan 5, 1:34 am)
Low44 °F (Jan 4, 4:53 am)29% (Jan 7, 2:53 pm)29.91 "Hg (Jan 12, 5:41 am)
Average57 °F81%30.06 "Hg
* Reported Jan 3 4:53 am — Jan 18 4:53 am, Fullerton, Weather by CustomWeather, © 2017

Note: Actual official high and low records may vary slightly from our data, if they occured in-between our weather recording intervals... More about our weather records

Advertising

Fullerton Weather History for the Previous 24 Hours

Scroll right to see more
 ConditionsComfort  
Time TempWeatherWind HumidityBarometerVisibility
4:53 am
Wed, Jan 18
47 °FPassing clouds.No wind90%30.14 "Hg8 mi
4:05 am47 °FPassing clouds.No wind86%30.15 "Hg8 mi
3:53 am47 °FPassing clouds.No wind86%30.15 "Hg8 mi
3:43 am48 °FPassing clouds.No wind83%30.14 "Hg9 mi
2:53 am49 °FPassing clouds.3 mph84%30.14 "Hg10 mi
2:42 am48 °FPassing clouds.No wind86%30.15 "Hg10 mi
1:53 am49 °FOvercast.3 mph80%30.14 "Hg10 mi
1:26 am49 °FPassing clouds.5 mph80%30.15 "Hg10 mi
12:53 am48 °FClear.5 mph83%30.15 "Hg10 mi
12:13 am49 °FPassing clouds.6 mph80%30.16 "Hg10 mi
11:53 pm
Tue, Jan 17
50 °FPassing clouds.3 mph83%30.16 "Hg10 mi
11:44 pm50 °FPassing clouds.3 mph80%30.17 "Hg10 mi
10:53 pm49 °FClear.No wind84%30.16 "Hg10 mi
9:53 pm50 °FClear.No wind80%30.14 "Hg10 mi
8:53 pm53 °FClear.No wind74%30.12 "Hg10 mi
7:53 pm55 °FClear.No wind69%30.11 "Hg10 mi
6:53 pm58 °FClear.No wind60%30.12 "Hg10 mi
5:53 pm60 °FClear.3 mph52%30.09 "Hg10 mi
4:53 pm62 °FSunny.3 mph54%30.08 "Hg10 mi
3:53 pm65 °FSunny.7 mph45%30.06 "Hg10 mi
2:53 pm68 °FSunny.6 mph35%30.06 "Hg10 mi
1:53 pm69 °FSunny.8 mph31%30.07 "Hg10 mi
12:53 pm68 °FSunny.6 mph39%30.06 "Hg10 mi
11:53 am66 °FSunny.No wind31%30.07 "Hg10 mi
10:53 am65 °FSunny.No wind37%30.10 "Hg10 mi
9:53 am59 °FSunny.3 mph58%30.12 "Hg10 mi
8:53 am55 °FSunny.5 mph64%30.12 "Hg10 mi
7:53 am49 °FSunny.No wind69%30.11 "Hg10 mi
6:53 am44 °FClear.No wind85%30.08 "Hg10 mi
Weather by CustomWeather, © 2017

See weather overviewHow to use our weather pages